Weather History for Detroit, MI

Change the Weather History Date:

Saturday, March 15, 2014

  Actual Average Record
Temperature  
Mean Temperature 36 °F -  
Max Temperature 43 °F 45 °F 76 °F (1990)
Min Temperature 28 °F 29 °F 10 °F (1979)
Degree Days  
Heating Degree Days 28    
Moisture  
Dew Point 23 °F    
Average Humidity 56    
Maximum Humidity 73    
Minimum Humidity 34    
Precipitation  
Precipitation 0.00 in - - ()
Sea Level Pressure  
Sea Level Pressure 29.97 in    
Wind  
Wind Speed 12 mph (NW)    
Max Wind Speed 16 mph    
Max Gust Speed 30 mph    
Visibility 10 miles    
Events      
Averages and records for this station are not official NWS values.
T = Trace of Precipitation, MM = Missing Value Source: NWS Daily Summary

Daily Weather History Graph

Daily Weather History Graph

Search for Another Location

Airport:

Trip Planner

Search our weather history database for the weather conditions in past years. The results will help you decide how hot, cold, wet, or windy it might be!

Date:

Astronomy

Mar. 15, 2014 Rise Set
Actual Time 7:43 AM EDT 7:38 PM EDT
Civil Twilight 7:16 AM EDT 8:06 PM EDT
Nautical Twilight 6:43 AM EDT 8:39 PM EDT
Astronomical Twilight 6:10 AM EDT 9:12 PM EDT
Moon 6:56 PM EDT (3/15) 6:56 AM EDT (3/15)
Length of Visible Light 12h 50m
Length of Day
11h 54m
Waxing Gibbous, 99% of the Moon is Illuminated
Mar 15
Waxing Gibbous
Mar 16
Full
Mar 23
Last Quarter
Mar 30
New
Apr 7
First Quarter

Hourly Weather History & Observations

Time (EDT) Temp. Windchill Dew Point Humidity Pressure Visibility Wind Dir Wind Speed Gust Speed Precip Events Conditions
12:53 AM 43.0 °F 35.4 °F 28.9 °F 58% 29.71 in 10.0 mi West 16.1 mph 24.2 mph N/A   Overcast
1:53 AM 42.1 °F 34.5 °F 28.9 °F 60% 29.73 in 10.0 mi West 15.0 mph 21.9 mph N/A   Overcast
2:53 AM 41.0 °F 34.7 °F 28.9 °F 62% 29.74 in 10.0 mi West 10.4 mph 19.6 mph N/A   Mostly Cloudy
3:53 AM 39.9 °F 34.5 °F 28.9 °F 65% 29.75 in 10.0 mi West 8.1 mph - N/A   Clear
4:53 AM 39.0 °F 32.8 °F 28.9 °F 67% 29.76 in 10.0 mi West 9.2 mph - N/A   Scattered Clouds
5:53 AM 37.9 °F 32.7 °F 30.0 °F 73% 29.78 in 10.0 mi WSW 6.9 mph - N/A   Overcast
6:53 AM 39.0 °F 32.3 °F 30.0 °F 70% 29.81 in 10.0 mi West 10.4 mph - N/A   Overcast
7:01 AM 39.2 °F 33.0 °F 30.2 °F 70% 29.80 in 10.0 mi West 9.2 mph - N/A   Overcast
7:53 AM 39.0 °F 33.4 °F 28.9 °F 67% 29.84 in 10.0 mi West 8.1 mph - N/A   Overcast
8:53 AM 39.0 °F 32.3 °F 28.9 °F 67% 29.87 in 10.0 mi WNW 10.4 mph - N/A   Overcast
9:37 AM 39.2 °F 33.0 °F 28.4 °F 65% 29.90 in 10.0 mi NW 9.2 mph - N/A   Overcast
9:53 AM 37.9 °F 30.0 °F 28.0 °F 68% 29.92 in 10.0 mi NW 12.7 mph 18.4 mph N/A   Overcast
10:14 AM 37.4 °F 31.4 °F 28.4 °F 70% 29.93 in 10.0 mi NW 8.1 mph 18.4 mph N/A   Overcast
10:22 AM 37.4 °F 29.3 °F 26.6 °F 65% 29.93 in 10.0 mi NW 12.7 mph 29.9 mph N/A   Overcast
10:53 AM 37.0 °F 28.9 °F 23.0 °F 57% 29.97 in 10.0 mi NW 12.7 mph 23.0 mph N/A   Overcast
11:53 AM 37.9 °F 30.0 °F 21.9 °F 53% 30.01 in 10.0 mi NW 12.7 mph 21.9 mph N/A   Mostly Cloudy
12:53 PM 37.9 °F 29.2 °F 19.9 °F 48% 30.04 in 10.0 mi WNW 15.0 mph 24.2 mph N/A   Mostly Cloudy
1:53 PM 37.9 °F 29.2 °F 16.0 °F 41% 30.06 in 10.0 mi NNW 15.0 mph 23.0 mph N/A   Clear
2:53 PM 37.9 °F 30.5 °F 14.0 °F 38% 30.07 in 10.0 mi NNW 11.5 mph 20.7 mph N/A   Clear
3:53 PM 39.0 °F 31.4 °F 12.9 °F 34% 30.09 in 10.0 mi NNW 12.7 mph 20.7 mph N/A   Clear
4:53 PM 39.0 °F 33.4 °F 16.0 °F 39% 30.12 in 10.0 mi WNW 8.1 mph 18.4 mph N/A   Partly Cloudy
5:53 PM 37.9 °F 30.9 °F 17.1 °F 43% 30.12 in 10.0 mi WNW 10.4 mph 16.1 mph N/A   Clear
6:53 PM 37.0 °F 30.4 °F 16.0 °F 42% 30.15 in 10.0 mi NNW 9.2 mph - N/A   Clear
7:53 PM 35.1 °F 28.6 °F 17.1 °F 48% 30.17 in 10.0 mi NNW 8.1 mph - N/A   Mostly Cloudy
8:53 PM 34.0 °F 27.2 °F 17.1 °F 50% 30.20 in 10.0 mi North 8.1 mph - N/A   Clear
9:53 PM 33.1 °F 23.4 °F 16.0 °F 50% 30.22 in 10.0 mi North 13.8 mph 18.4 mph N/A   Overcast
10:53 PM 30.0 °F 21.1 °F 15.1 °F 54% 30.25 in 10.0 mi North 10.4 mph 21.9 mph N/A   Overcast
11:53 PM 28.0 °F 18.1 °F 12.9 °F 53% 30.28 in 10.0 mi North 11.5 mph - N/A   Overcast